Vorticity
nan nan nan nan nan nan nan nan nan nan nan nan nan nan nan nan nan nan nan nan nan nan nan nan nan nan nan nan nan nan nan nan nan nan nan nan nan nan nan nan nan nan nan nan nan
nan 6 6 6 6 6 6 6 6 6 6 7 7 8 7 14 20 9 11 6 8 2 3 6 6 10 13 10 5 3 3 -0 11 14 10 7 9 8 10 1 7 19 15 12 nan
nan 7 7 6 6 6 6 6 6 6 6 7 8 8 8 16 16 10 15 16 10 4 4 6 10 8 10 12 9 5 5 5 0 12 20 7 5 8 5 9 15 11 7 2 nan
nan 7 7 6 6 7 7 6 6 6 6 7 8 8 20 19 3 10 10 16 8 2 3 7 6 9 5 14 20 9 -5 6 13 13 7 13 10 9 8 16 12 10 6 1 nan
nan 7 7 7 7 7 7 7 6 7 7 8 8 12 19 11 6 6 11 7 4 6 6 5 4 8 10 9 9 6 18 8 -6 -1 1 16 11 11 15 16 8 9 8 2 nan
nan 8 8 7 7 7 8 7 6 7 8 9 8 14 13 3 8 6 9 7 9 5 8 7 8 8 8 7 7 15 12 -2 5 5 4 7 13 14 14 8 7 3 3 6 nan
nan 8 8 8 8 8 8 7 7 8 9 10 13 14 11 9 -1 3 10 9 8 4 7 5 8 11 10 10 11 6 3 9 8 8 9 10 11 17 12 7 5 3 3 4 nan
nan 7 7 8 8 8 9 7 9 12 14 13 14 12 4 9 6 7 10 9 11 9 5 5 7 8 12 7 2 4 5 8 10 9 5 11 5 6 16 11 5 5 5 6 nan
nan 6 7 8 9 9 8 9 17 20 18 11 7 9 5 9 15 14 7 4 6 11 8 12 15 10 6 7 3 7 7 6 10 8 7 6 8 0 12 18 12 3 6 6 nan
nan 8 7 8 8 8 14 26 21 18 17 7 3 4 13 12 10 10 7 11 6 6 11 12 10 5 6 7 11 8 6 9 9 7 9 6 9 6 8 5 7 17 11 6 nan
nan 8 8 8 8 9 18 21 11 14 12 9 2 -2 2 12 9 8 13 7 9 8 9 8 9 7 12 6 13 12 8 5 13 10 8 6 7 6 2 6 7 11 15 11 nan
nan 8 8 8 8 18 15 9 7 5 9 13 6 5 5 9 3 7 20 10 9 5 1 12 10 13 12 14 9 3 6 5 14 11 3 9 7 7 7 14 11 7 12 12 nan
nan 9 8 7 24 24 10 3 1 9 17 15 18 7 14 8 5 12 9 7 5 8 10 6 2 11 13 7 4 8 3 6 10 5 3 7 6 12 11 5 7 8 9 17 nan
nan 8 5 21 25 9 9 8 12 7 5 16 12 11 15 4 10 20 7 7 7 7 12 3 12 11 9 5 5 9 4 5 10 5 7 3 10 9 10 3 5 7 14 13 nan
nan 9 13 22 12 8 2 1 16 12 7 15 11 15 16 4 2 13 12 11 10 5 8 6 10 12 8 13 7 5 9 10 3 9 9 4 10 11 12 13 14 14 12 7 nan
nan 8 16 17 11 4 3 15 15 10 9 13 13 8 7 6 3 11 10 7 12 10 4 10 8 12 7 13 10 10 9 9 11 11 7 13 4 7 7 10 17 14 15 12 nan
nan 11 15 10 5 7 14 16 11 4 8 13 10 10 7 8 7 9 7 8 9 8 8 11 10 12 10 8 8 7 13 8 7 12 10 8 9 7 6 9 12 5 8 17 nan
nan 24 23 8 3 6 15 12 7 6 9 8 9 15 9 5 10 10 9 8 5 9 13 8 8 14 12 10 10 4 6 8 10 6 10 11 8 9 10 5 1 17 20 10 nan
nan 26 11 19 12 6 11 9 10 5 2 10 16 13 8 10 13 12 8 9 9 7 6 3 6 6 8 13 10 8 10 9 4 9 13 8 6 7 11 16 1 9 19 11 nan
nan 11 12 21 11 5 9 7 7 2 4 12 9 4 11 12 12 9 8 7 13 7 6 6 13 2 9 12 12 15 2 4 11 15 6 9 11 11 8 8 -1 4 7 9 nan
nan 11 18 10 2 8 11 7 6 4 2 4 10 12 12 12 8 5 6 10 13 12 8 6 8 8 14 9 5 4 4 10 16 9 11 9 8 13 8 4 7 6 7 9 nan
nan 11 13 5 7 9 8 7 5 3 6 13 15 12 7 8 14 16 12 7 10 12 10 6 3 16 2 6 14 12 10 4 7 7 7 11 12 16 13 2 5 6 11 16 nan
nan 10 7 10 9 8 9 10 10 8 9 9 7 12 13 10 12 11 14 13 11 11 9 10 5 6 7 13 18 14 10 5 7 18 13 4 11 9 7 10 10 10 13 16 nan
nan 10 11 10 11 8 10 12 8 11 16 11 6 7 7 14 11 8 9 21 17 9 7 9 13 15 11 4 1 6 10 9 7 6 13 7 12 10 7 7 11 12 12 13 nan
nan 10 10 6 7 11 11 8 8 12 14 7 16 7 4 5 7 10 8 11 14 14 11 7 8 9 9 9 7 9 7 10 10 7 10 17 15 12 15 9 6 8 9 13 nan
nan 8 12 10 8 8 9 8 2 21 13 8 15 8 10 11 6 2 10 10 5 7 8 14 17 9 5 10 12 12 11 13 8 12 16 12 5 18 17 12 12 8 11 12 nan
nan nan nan nan nan nan nan nan nan nan nan nan nan nan nan nan nan nan nan nan nan nan nan nan nan nan nan nan nan nan nan nan nan nan nan nan nan nan nan nan nan nan nan nan nan
CAPE
2 3 2 2 2 1 2 2 1 1 1 1 1 1 0 0 0 0 0 0 0 527 347 0 16 0 8 7 4 11 44 38 92 784 838 669 833 899 496 468 446 547 216 109 179
4 2 3 2 2 2 1 1 1 1 1 1 0 0 0 0 0 0 0 7 114 74 0 0 0 0 0 0 15 17 19 43 114 257 723 870 566 300 402 593 530 420 294 193 619
3 2 3 2 2 2 2 1 1 1 1 1 0 0 0 0 0 0 0 14 773 192 0 0 0 0 0 0 55 27 64 86 81 229 605 839 603 521 577 443 366 387 309 79 444
3 3 2 2 2 1 2 1 1 1 0 1 0 0 0 0 0 0 0 694 792 0 0 0 0 0 0 42 69 43 0 0 93 241 83 221 787 691 364 469 365 394 358 149 216
3 3 3 2 2 2 2 1 1 0 0 0 0 0 0 0 0 0 6 173 9 0 0 0 0 0 0 84 129 27 1 3 105 210 95 0 697 602 542 517 382 72 347 246 200
3 3 3 2 2 1 1 2 1 0 0 0 0 0 0 0 0 0 0 0 0 0 0 0 0 0 2 25 63 51 74 68 173 115 77 0 97 404 315 302 120 28 10 0 0
2 2 1 2 2 2 1 0 0 0 0 0 0 0 0 0 0 0 0 0 0 0 0 0 0 0 78 76 70 112 199 244 278 148 49 0 260 295 220 158 72 15 7 8 0
3 2 1 1 1 1 1 0 0 0 0 0 0 0 0 0 0 0 0 0 0 0 0 0 0 0 4 44 44 125 65 10 108 158 26 0 163 175 162 149 70 39 40 46 14
2 1 1 1 1 1 1 0 0 0 0 0 0 0 0 0 0 0 0 0 0 0 0 0 0 0 1 0 1 19 2 20 145 45 13 0 0 7 103 109 102 70 67 105 42
3 3 2 2 2 0 1 0 0 0 0 0 0 0 0 0 0 0 0 0 0 0 0 0 0 0 0 8 0 4 8 1 61 119 154 11 4 0 281 123 65 86 106 85 53
3 2 2 2 2 1 0 0 0 0 0 0 0 0 0 0 0 0 0 0 0 0 0 0 0 0 0 0 15 42 65 110 80 155 164 252 326 0 75 0 86 148 48 136 74
1 2 1 1 1 2 0 0 0 0 0 0 0 0 0 0 0 0 0 0 0 0 0 0 0 0 0 60 83 66 72 93 176 178 327 147 4 98 81 5 220 285 119 64 67
0 2 0 0 0 0 0 0 0 0 0 0 0 0 0 0 0 0 0 0 0 0 0 0 0 0 1 15 16 0 63 47 42 181 443 482 393 118 7 19 423 332 25 69 69
0 1 1 1 0 0 0 0 0 0 0 0 0 0 0 0 0 0 0 0 0 0 0 0 0 0 0 7 0 5 20 20 122 25 118 261 173 86 27 0 28 331 91 126 37
0 0 0 0 0 0 0 0 0 0 0 0 0 0 0 0 0 0 0 0 0 0 0 0 0 0 0 0 0 5 1 74 94 19 36 159 18 3 39 36 71 140 36 8 106
0 0 0 0 0 0 0 0 0 0 0 0 0 0 0 0 0 0 0 0 0 0 0 0 0 0 0 1 0 44 25 13 9 0 0 22 36 0 2 0 0 0 0 15 365
0 0 1 0 0 0 0 0 0 0 0 0 0 0 0 0 0 0 0 0 0 0 0 0 0 0 0 0 0 0 0 2 50 34 59 0 0 0 108 0 29 135 124 181 530
0 0 0 0 0 0 0 0 0 0 0 0 0 0 0 0 0 0 0 0 0 0 0 0 0 0 0 0 31 0 0 0 29 37 26 0 0 34 203 277 142 288 119 472 647
0 0 0 0 0 0 0 0 0 0 0 0 0 0 0 0 0 0 0 0 0 0 0 0 0 0 0 0 21 11 3 0 0 0 2 6 78 160 2 0 62 423 555 197 527
0 0 0 0 0 0 0 0 0 0 0 0 0 0 0 0 0 0 0 0 0 0 0 0 0 0 0 0 0 15 0 8 0 5 22 0 41 92 0 0 0 4 401 162 342
0 0 0 0 0 0 0 0 0 0 0 0 0 0 0 0 0 0 0 0 0 0 0 0 0 0 0 0 0 17 18 0 0 0 0 25 118 50 0 0 1 30 16 116 92
0 0 0 0 0 0 0 0 0 0 0 0 0 0 0 0 0 0 0 0 0 0 0 0 0 0 0 0 0 0 0 1 5 0 0 9 72 131 7 0 21 9 151 495 12
0 0 0 0 0 0 0 0 0 0 0 0 0 0 0 0 0 0 0 0 0 0 0 0 0 0 0 0 0 0 0 0 0 0 0 87 54 72 12 56 7 17 209 1107 1556
0 137 68 0 0 0 0 0 0 0 0 0 0 0 0 0 0 0 0 0 0 0 39 0 0 0 0 0 0 0 0 0 0 0 0 57 161 213 181 67 0 229 251 1149 1462
0 46 59 1 19 0 0 5 133 1 0 0 0 0 0 0 0 0 0 0 0 1 0 0 0 0 0 0 0 0 0 0 0 0 0 5 138 167 182 11 0 24 215 1775 1744
0 0 27 0 0 1 0 78 75 48 0 0 0 0 0 0 0 0 0 0 1 3 0 0 0 0 0 0 0 0 0 0 0 0 0 22 76 78 87 89 2 5 671 2039 1930
0 0 0 0 0 34 1 0 152 98 64 23 0 0 0 0 0 0 0 0 0 2 0 0 0 0 0 0 0 0 0 0 0 0 0 12 44 3 63 358 779 233 1439 1758 2025